Time,TemperatureF,DewpointF,PressureIn,WindDirection,WindDirectionDegrees,WindSpeedMPH,WindSpeedGustMPH,Humidity,HourlyPrecipIn,Conditions,Clouds,dailyrainin,SoftwareType,DateUTC
2013-01-03 00:12:00,21.0,-99.9,30.09,North,-999,-999.0,-999.0,-999,-99.99,,,-99.99,,2013-01-03 05:12:00,
2013-01-03 00:33:00,20.0,-99.9,30.09,North,-999,-999.0,-999.0,-999,-99.99,,,-99.99,,2013-01-03 05:33:00,
2013-01-03 01:12:00,19.0,-99.9,30.10,North,-999,-999.0,-999.0,-999,-99.99,,,-99.99,,2013-01-03 06:12:00,
2013-01-03 01:43:00,19.0,-99.9,30.11,North,-999,-999.0,-999.0,-999,-99.99,,,-99.99,,2013-01-03 06:43:00,
2013-01-03 02:02:00,18.0,-99.9,30.11,North,-999,-999.0,-999.0,-999,-99.99,,,-99.99,,2013-01-03 07:02:00,
2013-01-03 03:12:00,16.0,-99.9,30.12,North,-999,-999.0,-999.0,-999,-99.99,,,-99.99,,2013-01-03 08:12:00,
2013-01-03 03:33:00,16.0,-99.9,30.11,North,-999,-999.0,-999.0,-999,-99.99,,,-99.99,,2013-01-03 08:33:00,
2013-01-03 04:43:00,14.0,-99.9,30.11,North,-999,-999.0,-999.0,-999,-99.99,,,-99.99,,2013-01-03 09:43:00,
2013-01-03 05:12:00,14.0,-99.9,30.11,North,-999,-999.0,-999.0,-999,-99.99,,,-99.99,,2013-01-03 10:12:00,
2013-01-03 05:33:00,13.0,-99.9,30.11,North,-999,-999.0,-999.0,-999,-99.99,,,-99.99,,2013-01-03 10:33:00,
2013-01-03 06:12:00,13.0,-99.9,30.12,North,-999,-999.0,-999.0,-999,-99.99,,,-99.99,,2013-01-03 11:12:00,
2013-01-03 06:43:00,12.0,-99.9,30.12,North,-999,-999.0,-999.0,-999,-99.99,,,-99.99,,2013-01-03 11:43:00,
2013-01-03 07:03:00,12.0,-99.9,30.12,North,-999,-999.0,-999.0,-999,-99.99,,,-99.99,,2013-01-03 12:03:00,
2013-01-03 08:13:00,12.0,-99.9,30.14,North,-999,-999.0,-999.0,-999,-99.99,,,-99.99,,2013-01-03 13:13:00,
2013-01-03 08:33:00,12.0,-99.9,30.13,North,-999,-999.0,-999.0,-999,-99.99,,,-99.99,,2013-01-03 13:33:00,
2013-01-03 09:43:00,13.0,-99.9,30.13,North,-999,-999.0,-999.0,-999,-99.99,,,-99.99,,2013-01-03 14:43:00,
2013-01-03 10:13:00,14.0,-99.9,30.14,North,-999,-999.0,-999.0,-999,-99.99,,,-99.99,,2013-01-03 15:13:00,
2013-01-03 10:34:00,15.0,-99.9,30.13,North,-999,-999.0,-999.0,-999,-99.99,,,-99.99,,2013-01-03 15:34:00,
2013-01-03 11:12:00,17.0,-99.9,30.11,North,-999,-999.0,-999.0,-999,-99.99,,,-99.99,,2013-01-03 16:12:00,
2013-01-03 11:43:00,18.0,-99.9,30.10,North,-999,-999.0,-999.0,-999,-99.99,,,-99.99,,2013-01-03 16:43:00,
2013-01-03 12:03:00,20.0,-99.9,30.09,North,-999,-999.0,-999.0,-999,-99.99,,,-99.99,,2013-01-03 17:03:00,
2013-01-03 12:43:00,21.0,-99.9,30.07,North,-999,-999.0,-999.0,-999,-99.99,,,-99.99,,2013-01-03 17:43:00,
2013-01-03 13:13:00,22.0,-99.9,30.06,North,-999,-999.0,-999.0,-999,-99.99,,,-99.99,,2013-01-03 18:13:00,
2013-01-03 13:33:00,22.0,-99.9,30.05,North,-999,-999.0,-999.0,-999,-99.99,,,-99.99,,2013-01-03 18:33:00,
2013-01-03 14:57:00,25.0,-99.9,30.04,North,-999,-999.0,-999.0,-999,-99.99,,,-99.99,,2013-01-03 19:57:00,
2013-01-03 15:03:00,26.0,-99.9,30.04,North,-999,-999.0,-999.0,-999,-99.99,,,-99.99,,2013-01-03 20:03:00,
2013-01-03 16:13:00,26.0,-99.9,30.04,North,-999,-999.0,-999.0,-999,-99.99,,,-99.99,,2013-01-03 21:13:00,
2013-01-03 16:38:00,26.0,-99.9,30.04,North,-999,-999.0,-999.0,-999,-99.99,,,-99.99,,2013-01-03 21:38:00,
2013-01-03 17:43:00,26.0,-99.9,30.04,North,-999,-999.0,-999.0,-999,-99.99,,,-99.99,,2013-01-03 22:43:00,
2013-01-03 18:13:00,26.0,-99.9,30.04,North,-999,-999.0,-999.0,-999,-99.99,,,-99.99,,2013-01-03 23:13:00,
2013-01-03 19:13:00,27.0,-99.9,30.05,North,-999,-999.0,-999.0,-999,-99.99,,,-99.99,,2013-01-04 00:13:00,
2013-01-03 19:43:00,27.0,-99.9,30.05,North,-999,-999.0,-999.0,-999,-99.99,,,-99.99,,2013-01-04 00:43:00,
2013-01-03 20:02:00,27.0,-99.9,30.06,North,-999,-999.0,-999.0,-999,-99.99,,,-99.99,,2013-01-04 01:02:00,
2013-01-03 20:43:00,27.0,-99.9,30.05,North,-999,-999.0,-999.0,-999,-99.99,,,-99.99,,2013-01-04 01:43:00,
2013-01-03 21:12:00,26.0,-99.9,30.05,North,-999,-999.0,-999.0,-999,-99.99,,,-99.99,,2013-01-04 02:12:00,
2013-01-03 21:33:00,27.0,-99.9,30.05,North,-999,-999.0,-999.0,-999,-99.99,,,-99.99,,2013-01-04 02:33:00,
2013-01-03 22:43:00,26.0,-99.9,30.04,North,-999,-999.0,-999.0,-999,-99.99,,,-99.99,,2013-01-04 03:43:00,
2013-01-03 23:02:00,26.0,-99.9,30.04,North,-999,-999.0,-999.0,-999,-99.99,,,-99.99,,2013-01-04 04:02:00,
2013-01-03 23:42:00,27.0,-99.9,30.03,North,-999,-999.0,-999.0,-999,-99.99,,,-99.99,,2013-01-04 04:42:00,